[[{"header":{"parameterUnit":"m.s-1","parameterCategory":1,"la1":30.2991,"la2":30.254,"lo1":-89.0895,"lo2":-89.0444,"dy":0.0017,"dx":0.0017,"nx":28,"ny":28,"refTime":"2024-10-13T03:00:00:Z","depth":0,"parameterNumber":2,"parameterNumberName":"U-component_of_WINDS"},"data":[0,0,0,0,0,0,0,0,0,0,0,0,0,0,0,0,0,0,0,0,0,0,0,0,0,0,0,0,0,0,0,0,0,0,0,0,0,0,0,0,0,0,0,0,0,0,0,0,0,0,0,0,0,0,0,0,0,0,2.499,2.4991,0,2.51,2.5101,2.5102,2.5076,2.5074,2.5071,2.5069,2.5181,2.5186,2.5191,0,0,0,0,0,0,0,0,0,0,0,0,0,2.4754,2.4758,2.4989,2.4991,2.4992,2.5099,2.5101,2.5102,2.5076,2.5073,2.5071,2.5068,2.5179,2.5185,2.5191,0,0,0,0,0,0,0,0,0,0,0,0,0,2.4859,2.476,2.4989,2.4992,2.4993,2.5099,2.5101,2.5103,2.5077,2.5073,2.507,2.5067,2.5177,2.5185,2.5192,2.5301,0,0,2.5215,2.5218,0,0,0,0,0,0,0,0,2.4853,2.4868,2.499,2.4992,2.4994,2.5071,2.5059,2.5169,2.5077,2.5045,2.5069,2.5066,2.5147,2.5157,2.5184,2.5307,2.5311,2.5215,2.522,2.5223,2.5225,0,0,0,0,0,0,0,2.4846,2.4863,2.5033,2.4992,2.4994,2.4987,2.4998,2.508,2.5112,2.5048,2.5046,2.5059,2.5147,2.5177,2.5187,2.5313,2.5215,2.5222,2.5226,2.5229,2.5528,2.5531,0,0,0,0,0,0,2.4838,2.4857,2.5029,2.5036,2.4914,2.4994,2.5007,2.5049,2.5111,2.5118,2.5062,2.5058,2.5166,2.5178,2.519,2.532,2.5223,2.523,2.5234,2.5525,2.5529,2.5533,0,0,0,0,0,0,2.4833,2.4853,2.5025,2.4946,2.4968,2.5001,2.5049,2.5053,2.5083,2.5122,2.5128,2.5087,2.5164,2.518,2.5273,2.5324,2.5233,2.524,2.552,2.5526,2.5531,2.5583,0,0,0,0,0,0,2.4826,2.4852,2.4894,2.4948,2.4972,2.5107,2.5052,2.5057,2.5096,2.5091,2.5147,2.5153,2.5163,2.5263,2.5281,2.5333,2.5246,2.5516,2.5523,2.5529,2.5577,2.5589,2.56,0,0,0,0,0,2.4818,2.4905,2.4897,2.4918,2.5026,2.511,2.5124,2.5134,2.51,2.5142,2.5167,2.5151,2.5316,2.5272,2.5293,2.5347,2.5513,2.5521,2.5529,2.5571,2.5587,2.56,0,0,0,0,0,0,2.4857,2.4912,2.4903,2.5011,2.5056,2.5106,2.5159,2.515,2.5205,2.5199,2.5208,2.5221,2.5316,2.5341,2.5292,2.5455,2.5409,2.5422,2.5435,2.545,2.5461,2.5452,2.5252,0,0,0,0,0,2.4878,2.4942,2.4987,2.5077,2.51,2.5126,2.5163,2.5166,2.5214,2.5233,2.5264,2.531,2.5372,2.5413,2.5472,2.5581,2.5591,2.5628,2.564,2.5649,2.5659,2.5716,2.5732,2.5558,2.5558,2.5558,0,0,2.4922,2.496,2.5,2.5086,2.5121,2.5186,2.5142,2.5214,2.5262,2.5243,2.5333,2.5358,2.541,2.5511,2.5557,2.5535,2.5709,2.5659,2.5666,2.5671,2.5725,2.5742,2.5756,2.5564,2.5563,2.5562,0,0,2.5035,2.5072,2.515,2.5186,2.524,2.5256,2.5275,2.5326,2.5342,2.5432,2.5419,2.5476,2.5583,2.562,2.5652,2.5778,2.5764,2.5797,2.5857,2.5912,2.5925,2.5938,2.598,2.5995,2.5807,2.5807,2.5807,0,2.5083,2.5182,2.5191,2.5263,2.53,2.5286,2.5364,2.5399,2.547,2.5495,2.547,2.5602,2.5636,2.5744,2.5774,2.5802,2.5822,2.579,2.5923,2.5935,2.5947,2.5987,2.6003,2.5811,2.581,2.581,2.581,0,2.5237,2.5305,2.5361,2.5429,2.5473,2.5548,2.5567,2.561,2.5609,2.5628,2.5719,2.5759,2.5825,2.5851,2.5852,2.5959,2.5943,2.5921,2.5874,2.5966,2.6004,2.602,2.5816,2.5814,2.5813,2.5812,0,0,2.5378,2.5449,2.5469,2.5499,2.5557,2.5609,2.5683,2.5747,2.5783,2.5832,2.5892,2.5982,2.5961,2.5998,2.6003,2.6051,2.6145,2.6022,2.6024,2.6042,2.6262,2.6278,2.6296,2.6137,2.614,2.6142,2.6257,0,2.5494,2.5624,2.5633,2.575,2.5812,2.5799,2.5862,2.5904,2.5923,2.5978,2.5999,2.6062,2.603,2.6052,2.61,2.6123,2.6189,2.6116,2.6191,2.6194,2.6177,2.6316,2.6333,2.6439,2.6272,2.6275,2.6277,0,2.5648,2.5701,2.5823,2.587,2.5897,2.5954,2.6012,2.6066,2.6112,2.6122,2.6163,2.616,2.6234,2.6186,2.6286,2.6236,2.6268,2.6284,2.6288,2.6294,2.624,2.6323,2.6474,2.6489,2.6301,2.6299,2.6297,0,2.5736,2.5838,2.5923,2.5949,2.6008,2.6047,2.6073,2.6117,2.6154,2.6205,2.6229,2.6289,2.6321,2.6366,2.6378,2.6343,2.6478,2.6432,2.6487,2.6486,2.6514,2.6512,2.667,2.6539,2.6538,2.6538,2.6538,0,2.5864,2.5939,2.5963,2.6016,2.6098,2.6108,2.619,2.6213,2.6251,2.6307,2.63,2.6353,2.6367,2.6422,2.6432,2.6512,2.6527,2.6536,2.6538,2.6536,2.6534,2.6555,2.6547,2.6542,2.6541,2.654,2.654,0,2.5975,2.5995,2.6087,2.6134,2.6147,2.6206,2.6246,2.6295,2.6313,2.6384,2.6401,2.6429,2.6492,2.651,2.6586,2.6593,2.6686,2.6682,2.6671,2.667,2.6723,2.6717,2.6898,2.6921,2.6777,2.6778,2.6779,0,2.6055,2.6112,2.6165,2.6201,2.6229,2.6289,2.6326,2.6338,2.6378,2.6434,2.6476,2.6539,2.659,2.6692,2.6718,2.6776,2.6771,2.6831,2.678,2.6775,2.6769,2.6765,2.6769,2.684,2.6841,2.6843,2.6844,0,2.6194,2.62,2.6255,2.6313,2.6358,2.6404,2.6449,2.6479,2.6497,2.6541,2.6606,2.6645,2.6723,2.6784,2.6842,2.6868,2.6858,2.686,2.6875,2.6873,2.6862,2.6866,2.6694,2.6855,2.6854,2.6853,2.6853,2.6852,2.629,2.6339,2.6383,2.6444,2.6478,2.6519,2.6568,2.6591,2.6645,2.6709,2.6713,2.6782,2.6825,2.6902,2.6931,2.6985,2.6967,2.699,2.6995,2.7,2.7003,2.6856,2.6996,2.6995,2.6995,2.6995,2.6995,0,2.6426,2.6453,2.6509,2.6571,2.6618,2.6606,2.6654,2.6694,2.6755,2.6796,2.6846,2.6919,2.6978,2.7009,2.7067,2.7104,2.7101,2.7119,2.7115,2.7121,2.7017,2.6997,2.712,2.712,2.712,2.712,2.712,2.712,2.6502,2.6584,2.6595,2.6693,2.672,2.6788,2.6816,2.6853,2.6885,2.6967,2.7017,2.7036,2.7072,2.7133,2.7186,2.7193,2.7214,2.7234,2.7239,2.7141,2.7128,2.7116,2.7097,2.7239,2.7239,2.7337,2.7338,2.7339]},{"header":{"parameterUnit":"m.s-1","parameterCategory":1,"la1":30.2991,"la2":30.254,"lo1":-89.0895,"lo2":-89.0444,"dy":0.0017,"dx":0.0017,"nx":28,"ny":28,"refTime":"2024-10-13T03:00:00:Z","depth":0,"parameterNumber":3,"parameterNumberName":"V-component_of_WINDS"},"data":[0,0,0,0,0,0,0,0,0,0,0,0,0,0,0,0,0,0,0,0,0,0,0,0,0,0,0,0,0,0,0,0,0,0,0,0,0,0,0,0,0,0,0,0,0,0,0,0,0,0,0,0,0,0,0,0,0,0,-0.3736,-0.3736,0,-0.3684,-0.3683,-0.3682,-0.3665,-0.3665,-0.3666,-0.3666,-0.361,-0.3608,-0.3607,0,0,0,0,0,0,0,0,0,0,0,0,0,-0.382,-0.3819,-0.3736,-0.3736,-0.3735,-0.3684,-0.3683,-0.3682,-0.3665,-0.3665,-0.3666,-0.3666,-0.3611,-0.3608,-0.3606,0,0,0,0,0,0,0,0,0,0,0,0,0,-0.3777,-0.3818,-0.3736,-0.372,-0.3718,-0.3684,-0.3683,-0.3682,-0.3665,-0.3665,-0.3666,-0.3666,-0.3611,-0.3609,-0.3606,-0.3583,0,0,-0.3598,-0.3597,0,0,0,0,0,0,0,0,-0.378,-0.3774,-0.3723,-0.3721,-0.3719,-0.3681,-0.3692,-0.3649,-0.3665,-0.3685,-0.3666,-0.3666,-0.3633,-0.3629,-0.3618,-0.3581,-0.3578,-0.3598,-0.3597,-0.3595,-0.3595,0,0,0,0,0,0,0,-0.3783,-0.3776,-0.3715,-0.3723,-0.372,-0.3715,-0.3709,-0.3684,-0.3658,-0.3683,-0.3682,-0.3676,-0.3632,-0.3621,-0.3617,-0.3577,-0.3598,-0.3596,-0.3594,-0.3593,-0.3519,-0.3518,0,0,0,0,0,0,-0.3789,-0.3779,-0.3717,-0.3714,-0.3751,-0.3713,-0.3707,-0.3693,-0.3658,-0.3653,-0.3676,-0.3676,-0.3625,-0.362,-0.3615,-0.3586,-0.3595,-0.3593,-0.3592,-0.3519,-0.3519,-0.3518,0,0,0,0,0,0,-0.3791,-0.3783,-0.3719,-0.3746,-0.3737,-0.3712,-0.3696,-0.3692,-0.368,-0.3652,-0.3648,-0.3669,-0.3625,-0.3618,-0.3591,-0.3584,-0.3592,-0.359,-0.352,-0.3519,-0.3519,-0.3528,0,0,0,0,0,0,-0.3793,-0.3784,-0.3775,-0.3746,-0.3736,-0.3697,-0.3696,-0.3691,-0.3676,-0.3675,-0.3645,-0.364,-0.3625,-0.3595,-0.3589,-0.358,-0.3588,-0.352,-0.352,-0.3519,-0.3528,-0.3527,-0.3527,0,0,0,0,0,-0.3796,-0.378,-0.3775,-0.3768,-0.3725,-0.3697,-0.3691,-0.3674,-0.3676,-0.3667,-0.3649,-0.3641,-0.3586,-0.3593,-0.3585,-0.3576,-0.3521,-0.352,-0.3519,-0.3528,-0.3528,-0.3527,0,0,0,0,0,0,-0.3808,-0.3775,-0.377,-0.3744,-0.3723,-0.3694,-0.3682,-0.3674,-0.3652,-0.3652,-0.3632,-0.3625,-0.36,-0.3585,-0.3594,-0.3552,-0.3553,-0.355,-0.3563,-0.3562,-0.3561,-0.3565,-0.3585,0,0,0,0,0,-0.3807,-0.3788,-0.376,-0.374,-0.373,-0.3708,-0.3695,-0.3684,-0.3662,-0.3653,-0.3633,-0.3611,-0.3589,-0.3575,-0.3552,-0.3526,-0.3519,-0.3516,-0.3515,-0.3515,-0.3513,-0.3498,-0.3496,-0.3515,-0.3515,-0.3515,0,0,-0.3806,-0.3786,-0.3775,-0.3742,-0.3724,-0.3704,-0.37,-0.3679,-0.3664,-0.3649,-0.3623,-0.3608,-0.3582,-0.3556,-0.3543,-0.3542,-0.3507,-0.3514,-0.3514,-0.3512,-0.3497,-0.3495,-0.3494,-0.3514,-0.3515,-0.3515,0,0,-0.3793,-0.3776,-0.3757,-0.3741,-0.3715,-0.3701,-0.3697,-0.3669,-0.3658,-0.3632,-0.362,-0.3602,-0.3564,-0.3546,-0.3532,-0.3514,-0.3506,-0.3507,-0.3505,-0.349,-0.3489,-0.3488,-0.3481,-0.3479,-0.3506,-0.3506,-0.3506,0,-0.3795,-0.3765,-0.3748,-0.3728,-0.3714,-0.3701,-0.3681,-0.3665,-0.3634,-0.3624,-0.3624,-0.3577,-0.3559,-0.3528,-0.3524,-0.3513,-0.3507,-0.351,-0.3491,-0.3489,-0.3487,-0.3481,-0.3479,-0.3506,-0.3506,-0.3506,-0.3506,0,-0.3767,-0.3747,-0.3734,-0.3705,-0.369,-0.367,-0.365,-0.3636,-0.3627,-0.3613,-0.3586,-0.3564,-0.3537,-0.3529,-0.352,-0.3497,-0.3498,-0.3495,-0.3495,-0.3486,-0.348,-0.3477,-0.3506,-0.3506,-0.3506,-0.3506,0,0,-0.376,-0.3723,-0.3718,-0.3705,-0.3677,-0.366,-0.364,-0.3615,-0.3603,-0.3582,-0.3564,-0.3533,-0.353,-0.3514,-0.3503,-0.349,-0.3478,-0.3489,-0.3488,-0.3487,-0.3452,-0.3454,-0.3451,-0.3473,-0.3472,-0.3472,-0.3454,0,-0.3743,-0.3707,-0.3692,-0.3662,-0.3643,-0.3631,-0.3613,-0.3594,-0.358,-0.3561,-0.3545,-0.3524,-0.3521,-0.3512,-0.3499,-0.3482,-0.347,-0.3483,-0.3455,-0.3455,-0.3462,-0.3448,-0.345,-0.3434,-0.3451,-0.3451,-0.345,0,-0.3719,-0.3698,-0.3667,-0.3642,-0.3633,-0.3617,-0.3593,-0.3576,-0.3553,-0.3544,-0.3527,-0.3517,-0.3495,-0.3497,-0.3466,-0.3475,-0.3463,-0.3453,-0.3452,-0.3449,-0.3452,-0.3444,-0.3429,-0.3427,-0.3446,-0.3447,-0.3447,0,-0.3716,-0.3681,-0.3658,-0.3647,-0.3616,-0.3606,-0.3593,-0.3571,-0.3557,-0.3536,-0.3527,-0.3503,-0.349,-0.3472,-0.3456,-0.3459,-0.3426,-0.3427,-0.3418,-0.3418,-0.3411,-0.3411,-0.3394,-0.3404,-0.3404,-0.3404,-0.3404,0,-0.3699,-0.368,-0.3656,-0.3642,-0.3621,-0.3604,-0.3583,-0.3569,-0.355,-0.3532,-0.352,-0.3504,-0.3483,-0.3464,-0.3451,-0.3428,-0.3422,-0.3414,-0.341,-0.3414,-0.3416,-0.3406,-0.3406,-0.3403,-0.3403,-0.3404,-0.3404,0,-0.3692,-0.3675,-0.3649,-0.3623,-0.3616,-0.3602,-0.3579,-0.3564,-0.3551,-0.3529,-0.3522,-0.35,-0.3477,-0.3459,-0.3429,-0.342,-0.3396,-0.3392,-0.3404,-0.3402,-0.3393,-0.3394,-0.3368,-0.3364,-0.3377,-0.3377,-0.3377,0,-0.3682,-0.3667,-0.364,-0.3628,-0.3615,-0.3595,-0.3582,-0.3565,-0.3551,-0.3525,-0.3513,-0.349,-0.347,-0.3434,-0.3415,-0.3392,-0.3388,-0.338,-0.3384,-0.3389,-0.3387,-0.3388,-0.3387,-0.338,-0.338,-0.338,-0.338,0,-0.3666,-0.3659,-0.3639,-0.3617,-0.3601,-0.3583,-0.3564,-0.3555,-0.3535,-0.3519,-0.3496,-0.3481,-0.3451,-0.3428,-0.3403,-0.3389,-0.3381,-0.3379,-0.3375,-0.3379,-0.3386,-0.3382,-0.3402,-0.3379,-0.3379,-0.3379,-0.3379,-0.3379,-0.3657,-0.3643,-0.3622,-0.3601,-0.3586,-0.3569,-0.3554,-0.3539,-0.352,-0.3494,-0.3486,-0.3462,-0.344,-0.3407,-0.3393,-0.3374,-0.3373,-0.3368,-0.3367,-0.3366,-0.3366,-0.339,-0.3369,-0.3369,-0.3369,-0.3369,-0.3369,0,-0.364,-0.3626,-0.3607,-0.3582,-0.3565,-0.356,-0.3539,-0.3526,-0.3505,-0.3486,-0.3468,-0.3441,-0.3419,-0.3399,-0.3376,-0.3364,-0.336,-0.3359,-0.3359,-0.3356,-0.3368,-0.3373,-0.3363,-0.3363,-0.3363,-0.3363,-0.3363,-0.3363,-0.3629,-0.3607,-0.3597,-0.3566,-0.3552,-0.353,-0.3518,-0.3503,-0.3488,-0.3459,-0.3441,-0.3428,-0.3408,-0.3384,-0.3363,-0.3358,-0.335,-0.3349,-0.3343,-0.3354,-0.3355,-0.3356,-0.3361,-0.3348,-0.3348,-0.3333,-0.3332,-0.3332]}]]